Charlevoix, MI

4:42 AM EST on December 04, 2016 (GMT -0500)
Charlevoix Municipal

Weather History for KCVX - May, 2013

Change the Weather History Date:

Saturday, May 25, 2013

  Actual Average Record
Temperature  
Mean Temperature 44 °F -  
Max Temperature 57 °F 67 °F 78 °F (2012)
Min Temperature 32 °F 50 °F 32 °F (2013)
Degree Days  
Heating Degree Days 20    
Moisture  
Dew Point 37 °F    
Average Humidity 76    
Maximum Humidity 100    
Minimum Humidity 42    
Precipitation  
Precipitation 0.00 in - - ()
Sea Level Pressure  
Sea Level Pressure 30.41 in    
Wind  
Wind Speed 2 mph (NNW)    
Max Wind Speed 9 mph    
Max Gust Speed -    
Visibility 10 miles    
Events Fog    
Averages and records for this station are not official NWS values.
T = Trace of Precipitation, MM = Missing Value Source: NWS Daily Summary

Daily Weather History Graph

Daily Weather History Graph

Search for Another Location

Airport or City:

Trip Planner

Search our weather history database for the weather conditions in past years. The results will help you decide how hot, cold, wet, or windy it might be!

Date:

Astronomy

May. 25, 2013 Rise Set
Actual Time 6:01 AM EDT 9:15 PM EDT
Civil Twilight 5:25 AM EDT 9:51 PM EDT
Nautical Twilight 4:38 AM EDT 10:38 PM EDT
Astronomical Twilight 3:41 AM EDT 11:36 PM EDT
Moon 10:02 PM EDT (5/25) 6:28 AM EDT (5/25)
Length of Visible Light 16h 26m
Length of Day
15h 14m
Full, 100% of the Moon is Illuminated
May 25
Full
May 31
Last Quarter
Jun 8
New
Jun 16
First Quarter
Jun 23
Full

Hourly Weather History & Observations

Time (EDT) Temp. Windchill Dew Point Humidity Pressure Visibility Wind Dir Wind Speed Gust Speed Precip Events Conditions
12:14 AM 38.5 °F - 35.4 °F 89% 30.40 in 10.0 mi Calm Calm - N/A   Clear
12:34 AM 38.3 °F 35.9 °F 35.2 °F 89% 30.41 in 10.0 mi West 3.5 mph - N/A   Clear
12:55 AM 37.8 °F 35.3 °F 35.1 °F 90% 30.40 in 10.0 mi West 3.5 mph - N/A   Clear
1:14 AM 38.8 °F - 35.6 °F 88% 30.40 in 10.0 mi Calm Calm - N/A   Clear
1:34 AM 37.0 °F - 35.6 °F 95% 30.40 in 10.0 mi Calm Calm - N/A   Clear
1:55 AM 36.5 °F - 35.2 °F 95% 30.40 in 10.0 mi Calm Calm - N/A   Clear
2:14 AM 34.7 °F - 34.3 °F 99% 30.40 in 10.0 mi Calm Calm - N/A   Clear
2:35 AM 34.3 °F - 34.3 °F 100% 30.40 in 10.0 mi Calm Calm - N/A   Clear
2:54 AM 33.4 °F 30.4 °F 33.4 °F 100% 30.40 in 10.0 mi WSW 3.5 mph - N/A   Clear
3:14 AM 33.3 °F - 33.3 °F 100% 30.40 in 10.0 mi Calm Calm - N/A   Clear
3:35 AM 34.2 °F - 34.2 °F 100% 30.40 in 10.0 mi Calm Calm - N/A   Clear
3:54 AM 34.0 °F - 34.0 °F 100% 30.39 in 10.0 mi Calm Calm - N/A   Clear
4:14 AM 33.6 °F - 33.6 °F 100% 30.39 in 10.0 mi Calm Calm - N/A   Clear
4:35 AM 33.3 °F - 33.3 °F 100% 30.40 in 10.0 mi Calm Calm - N/A   Clear
4:54 AM 33.4 °F - 33.4 °F 100% 30.40 in 10.0 mi Calm Calm - N/A   Clear
5:14 AM 32.5 °F - 32.5 °F 100% 30.41 in 10.0 mi Calm Calm - N/A   Clear
5:34 AM 32.4 °F - 32.4 °F 100% 30.41 in 10.0 mi Calm Calm - N/A   Clear
5:54 AM 32.7 °F - 32.7 °F 100% 30.41 in 10.0 mi Calm Calm - N/A   Clear
6:15 AM 32.9 °F - 32.9 °F 100% 30.41 in 10.0 mi Calm Calm - N/A   Clear
6:34 AM 34.2 °F 31.2 °F 34.2 °F 100% 30.41 in 10.0 mi East 3.5 mph - N/A   Clear
6:54 AM 35.4 °F - 35.4 °F 100% 30.41 in 10.0 mi Calm Calm - N/A   Scattered Clouds
7:15 AM 37.4 °F 34.9 °F 37.4 °F 100% 30.41 in 3.0 mi ESE 3.5 mph - N/A   Mostly Cloudy
7:34 AM 37.6 °F 35.1 °F 37.6 °F 100% 30.42 in 0.5 mi ESE 3.5 mph - N/A Fog Fog
7:54 AM 38.3 °F - 38.3 °F 100% 30.43 in 1.8 mi Calm Calm - N/A   Scattered Clouds
8:15 AM 41.0 °F - 41.0 °F 100% 30.44 in 10.0 mi Calm Calm - N/A   Clear
8:34 AM 42.8 °F - 40.3 °F 91% 30.45 in 10.0 mi Calm Calm - N/A   Clear
8:54 AM 44.4 °F 42.9 °F 39.6 °F 83% 30.45 in 10.0 mi East 3.5 mph - N/A   Clear
9:14 AM 45.9 °F 44.6 °F 39.4 °F 78% 30.47 in 10.0 mi East 3.5 mph - N/A   Clear
9:34 AM 47.5 °F - 40.1 °F 76% 30.47 in 10.0 mi ENE 4.6 mph - N/A   Clear
9:55 AM 49.1 °F - 40.6 °F 73% 30.48 in 10.0 mi Calm Calm - N/A   Clear
10:14 AM 50.7 °F - 40.1 °F 67% 30.47 in 10.0 mi East 3.5 mph - N/A   Clear
10:34 AM 50.2 °F - 42.1 °F 74% 30.46 in 10.0 mi North 4.6 mph - N/A   Clear
10:55 AM 50.2 °F - 41.4 °F 72% 30.45 in 10.0 mi North 5.8 mph - N/A   Clear
11:14 AM 50.0 °F - 41.5 °F 73% 30.45 in 10.0 mi NNW 5.8 mph - N/A   Clear
11:34 AM 49.8 °F - 41.4 °F 73% 30.45 in 10.0 mi NNW 5.8 mph - N/A   Clear
11:54 AM 49.8 °F - 41.4 °F 73% 30.45 in 10.0 mi NNW 5.8 mph - N/A   Clear
12:14 PM 50.0 °F - 41.5 °F 73% 30.45 in 10.0 mi NNW 5.8 mph - N/A   Clear
12:35 PM 50.5 °F - 41.0 °F 70% 30.44 in 10.0 mi NNW 8.1 mph - N/A   Clear
12:54 PM 48.6 °F - 40.1 °F 73% 30.44 in 10.0 mi NNW 8.1 mph - N/A   Clear
1:14 PM 49.8 °F - 41.0 °F 72% 30.44 in 10.0 mi NNW 6.9 mph - N/A   Clear
1:35 PM 49.6 °F - 41.4 °F 73% 30.44 in 10.0 mi NW 6.9 mph - N/A   Clear
1:54 PM 51.8 °F - 41.2 °F 67% 30.44 in 10.0 mi NW 6.9 mph - N/A   Clear
2:14 PM 51.4 °F - 39.7 °F 64% 30.43 in 10.0 mi NNW 9.2 mph - N/A   Clear
2:35 PM 52.0 °F - 39.9 °F 63% 30.43 in 10.0 mi NW 9.2 mph - N/A   Clear
2:54 PM 53.1 °F - 40.8 °F 63% 30.43 in 10.0 mi NW 9.2 mph - N/A   Clear
3:14 PM 52.5 °F - 39.9 °F 62% 30.43 in 10.0 mi NW 8.1 mph - N/A   Clear
3:35 PM 55.6 °F - 39.4 °F 55% 30.42 in 10.0 mi NW 9.2 mph - N/A   Clear
3:54 PM 55.9 °F - 36.9 °F 49% 30.42 in 10.0 mi NW 9.2 mph - N/A   Clear
4:14 PM 56.3 °F - 36.5 °F 47% 30.41 in 10.0 mi NW 5.8 mph - N/A   Clear
4:34 PM 55.9 °F - 36.9 °F 49% 30.41 in 10.0 mi NNW 6.9 mph - N/A   Clear
4:54 PM 56.7 °F - 36.9 °F 48% 30.40 in 10.0 mi NNW 5.8 mph - N/A   Clear
5:15 PM 57.0 °F - 34.0 °F 42% 30.40 in 10.0 mi NW 6.9 mph - N/A   Clear
5:34 PM 56.8 °F - 34.7 °F 43% 30.39 in 10.0 mi NW 3.5 mph - N/A   Clear
5:54 PM 56.7 °F - 34.5 °F 43% 30.39 in 10.0 mi NNW 5.8 mph - N/A   Clear
6:15 PM 55.6 °F - 33.3 °F 43% 30.39 in 10.0 mi NW 5.8 mph - N/A   Clear
6:34 PM 55.8 °F - 34.0 °F 44% 30.39 in 10.0 mi WNW 5.8 mph - N/A   Clear
6:54 PM 55.4 °F - 36.1 °F 48% 30.38 in 10.0 mi WNW 4.6 mph - N/A   Clear
7:15 PM 56.5 °F - 37.6 °F 49% 30.38 in 10.0 mi Calm Calm - N/A   Clear
7:34 PM 55.2 °F - 34.2 °F 45% 30.37 in 10.0 mi NNW 3.5 mph - N/A   Clear
7:54 PM 54.3 °F - 34.5 °F 47% 30.37 in 10.0 mi West 4.6 mph - N/A   Clear
8:15 PM 54.0 °F - 33.4 °F 46% 30.37 in 10.0 mi Calm Calm - N/A   Clear
8:34 PM 51.8 °F - 33.8 °F 50% 30.36 in 10.0 mi NW 4.6 mph - N/A   Clear
8:54 PM 47.5 °F - 36.1 °F 65% 30.37 in 10.0 mi NW 3.5 mph - N/A   Clear
9:15 PM 45.9 °F - 36.5 °F 70% 30.36 in 10.0 mi Calm Calm - N/A   Clear
9:34 PM 45.3 °F 44.0 °F 36.5 °F 71% 30.36 in 10.0 mi West 3.5 mph - N/A   Clear
9:54 PM 44.4 °F - 37.4 °F 76% 30.35 in 10.0 mi Calm Calm - N/A   Clear
10:15 PM 43.5 °F - 37.6 °F 80% 30.36 in 10.0 mi Calm Calm - N/A   Clear
10:34 PM 42.8 °F - 37.8 °F 82% 30.37 in 10.0 mi Calm Calm - N/A   Clear
10:55 PM 43.2 °F - 36.7 °F 78% 30.37 in 10.0 mi Calm Calm - N/A   Clear
11:14 PM 41.0 °F - 36.5 °F 84% 30.37 in 10.0 mi Calm Calm - N/A   Clear
11:34 PM 40.8 °F - 36.7 °F 85% 30.37 in 10.0 mi Calm Calm - N/A   Clear
11:54 PM 39.7 °F - 36.3 °F 88% 30.37 in 10.0 mi Calm Calm - N/A   Clear